AT994 Weather Reports


time (UTC)temp
C
wind
direction
speed
KPH
gust
KPH
rain 1hr
cm
rain 24hr
cm
rain mn
cm
humidity
%
barometer
mb
20260509123701 11 106 0.0 0.0 0.00 0.05 0.00 77 1007.3
20260509122701 11 105 0.0 0.0 0.00 0.05 0.00 76 1007.2
20260509121701 10 104 0.0 0.0 0.00 0.05 0.00 76 1007.2
20260509120701 10 105 0.0 0.0 0.00 0.05 0.00 76 1007.1
20260509115700 9 105 0.0 0.0 0.00 0.05 0.00 76 1007.3
20260509114701 8 0 0.0 0.0 0.00 0.05 0.00 75 1007.2
20260509113701 8 104 0.0 0.0 0.00 0.05 0.00 75 1007.3
20260509112701 8 104 0.0 0.0 0.00 0.05 0.00 74 1007.4
20260509111701 7 104 0.0 0.0 0.00 0.05 0.00 74 1007.3
20260509111139 7 104 0.0 1.6 0.00 0.05 0.00 74 1007.5
20260509105701 7 103 0.0 3.2 0.00 0.05 0.00 74 1007.3
20260509104701 7 103 0.0 1.6 0.00 0.05 0.00 74 1007.3
20260509104141 6 103 0.0 0.0 0.00 0.05 0.00 74 1007.2
20260509102701 6 103 0.0 0.0 0.00 0.05 0.00 73 1007.2
20260509101701 6 103 0.0 0.0 0.00 0.05 0.00 73 1007.1
20260509100701 6 103 0.0 0.0 0.00 0.05 0.00 72 1007.1
20260509095701 6 103 0.0 0.0 0.00 0.05 0.00 72 1007.1
20260509094701 6 103 0.0 0.0 0.00 0.05 0.00 72 1007.2
20260509093700 6 103 0.0 0.0 0.00 0.05 0.00 72 1007.3
20260509093139 6 103 0.0 0.0 0.00 0.05 0.00 72 1007.2
20260509092144 6 103 0.0 0.0 0.00 0.05 0.00 72 1007.2
20260509090701 6 103 0.0 0.0 0.00 0.05 0.00 72 1007.3
20260509085701 6 103 0.0 0.0 0.00 0.05 0.00 72 1007.4
20260509084701 6 103 0.0 0.0 0.00 0.05 0.00 72 1007.4
20260509083701 5 103 0.0 1.6 0.00 0.05 0.00 73 1007.5
20260509082701 5 103 0.0 0.0 0.00 0.05 0.00 73 1007.6
20260509081701 5 103 0.0 0.0 0.00 0.05 0.00 73 1007.6
20260509080702 5 103 0.0 0.0 0.00 0.05 0.00 73 1007.7
20260509075702 5 103 0.0 0.0 0.00 0.05 0.00 73 1007.8
20260509074701 5 103 0.0 0.0 0.00 0.05 0.00 72 1007.8
20260509073702 5 103 0.0 0.0 0.00 0.05 0.00 72 1007.9
20260509072702 5 103 0.0 0.0 0.00 0.05 0.00 72 1008.0
20260509071702 6 103 0.0 0.0 0.00 0.05 0.00 72 1008.1
20260509070702 6 103 0.0 0.0 0.00 0.05 0.00 72 1008.2
20260509065701 6 103 0.0 0.0 0.00 0.05 0.00 71 1008.3
20260509064702 6 103 0.0 0.0 0.00 0.05 0.00 71 1008.4
20260509064144 6 103 0.0 0.0 0.00 0.05 0.00 71 1008.5
20260509062703 6 103 0.0 0.0 0.00 0.05 0.00 71 1008.6
20260509061702 6 103 0.0 0.0 0.00 0.05 0.00 72 1008.7
20260509060701 6 103 0.0 0.0 0.00 0.05 0.00 72 1008.7
20260509055701 6 103 0.0 0.0 0.00 0.05 0.00 73 1008.9
20260509055133 6 103 0.0 0.0 0.00 0.05 0.00 72 1009.0
20260509053701 6 103 0.0 0.0 0.00 0.05 0.00 72 1009.0
20260509052701 6 103 0.0 0.0 0.00 0.05 0.00 73 1009.3
20260509051701 6 103 0.0 0.0 0.00 0.05 0.00 73 1009.3
20260509050701 6 103 0.0 0.0 0.00 0.05 0.00 74 1009.4
20260509045702 6 103 0.0 0.0 0.00 0.05 0.00 76 1009.4
20260509045200 6 103 0.0 0.0 0.00 0.08 0.08 78 1009.9
20260509044953 6 103 0.0 0.0 0.00 0.15 0.08 74 1010.0
20260509044949 6 103 0.0 0.0 0.00 0.15 0.08 76 1010.0
20260509044945 6 103 0.0 0.0 0.00 0.15 0.08 78 1010.0
20260509044940 6 103 0.0 0.0 0.00 0.15 0.08 79 1010.1
20260509044936 6 103 0.0 0.0 0.00 0.10 0.08 79 1010.1
20260509044715 6 103 0.0 0.0 0.00 0.13 0.08 79 1010.1
20260509044710 5 103 0.0 0.0 0.00 0.05 0.00 81 1009.8
20260509044706 6 103 0.0 0.0 0.00 0.05 0.00 78 1009.4
20260509044444 5 103 0.0 0.0 0.00 0.08 0.08 81 1009.8
20260509044223 6 103 0.0 0.0 0.00 0.08 0.08 80 1009.9
20260509043740 5 103 0.0 0.0 0.00 0.08 0.08 81 1009.8
20260509043736 5 103 0.0 0.0 0.00 0.05 0.00 81 1009.7
20260509043732 6 103 0.0 0.0 0.00 0.05 0.00 80 1009.5
20260509043249 6 103 0.0 0.0 0.00 0.08 0.08 79 1009.9
20260509043154 6 103 0.0 0.0 0.00 0.15 0.08 73 1010.0
20260509043143 5 103 0.0 0.0 0.00 0.05 0.00 81 1009.6
20260509015642 7 103 0.0 0.0 0.00 0.18 0.08 70 1010.0
20260509014640 7 103 0.0 0.0 0.00 0.18 0.08 68 1010.0
20260509014113 7 103 0.0 0.0 0.00 0.18 0.08 68 1010.1
20260509012641 7 103 0.0 0.0 0.00 0.20 0.08 67 1010.1
20260509011637 8 103 0.0 0.0 0.00 0.20 0.08 66 1010.1
20260509010637 8 103 0.0 0.0 0.00 0.20 0.08 61 1010.0
20260509005636 8 103 0.0 0.0 0.00 0.20 0.08 58 1009.7
20260509004636 9 103 0.0 0.0 0.00 0.20 0.08 57 1009.5
20260509003636 9 103 0.0 0.0 0.00 0.20 0.08 57 1009.4
20260509002636 10 104 0.0 0.0 0.00 0.20 0.08 56 1009.4
20260509001637 10 103 0.0 0.0 0.00 0.20 0.08 55 1009.4
20260509000636 10 104 0.0 0.0 0.00 0.20 0.08 54 1009.3
20260508235636 10 106 0.0 0.0 0.00 0.20 0.08 53 1009.3
20260508234636 10 105 0.0 0.0 0.00 0.20 0.08 52 1009.3
20260508233636 10 104 0.0 0.0 0.00 0.20 0.08 54 1009.2
20260508232631 10 103 0.0 0.0 0.00 0.20 0.08 54 1009.2
20260508231630 11 103 0.0 0.0 0.00 0.20 0.08 54 1009.1
20260508231107 11 103 0.0 0.0 0.00 0.20 0.08 54 1009.1
20260508230106 11 103 0.0 0.0 0.00 0.20 0.08 53 1009.1
20260508224630 11 103 0.0 0.0 0.00 0.20 0.08 52 1009.2
20260508223632 11 103 0.0 0.0 0.00 0.20 0.08 53 1009.2
20260508222631 11 104 0.0 0.0 0.00 0.20 0.08 54 1009.2
20260508221630 11 103 0.0 0.0 0.00 0.20 0.08 53 1009.2
20260508220630 12 103 0.0 0.0 0.00 0.20 0.08 53 1009.2
20260508215630 12 103 0.0 0.0 0.00 0.20 0.08 51 1009.3
20260508214630 12 103 0.0 0.0 0.00 0.20 0.08 55 1009.4
20260508213630 12 103 0.0 0.0 0.00 0.20 0.08 56 1009.4
20260508212630 12 103 0.0 0.0 0.00 0.20 0.08 55 1009.5
20260508211630 12 103 0.0 0.0 0.00 0.20 0.08 55 1009.5
20260508210630 12 103 0.0 0.0 0.00 0.20 0.08 57 1009.5
20260508205630 12 103 0.0 0.0 0.00 0.20 0.08 57 1009.6
20260508205118 12 103 0.0 0.0 0.00 0.20 0.08 56 1009.7
20260508203629 12 103 0.0 0.0 0.00 0.20 0.08 58 1009.7
20260508202630 12 103 0.0 1.6 0.00 0.20 0.08 59 1009.8
20260508202113 12 103 0.0 0.0 0.00 0.20 0.08 57 1010.0
20260508200629 12 103 0.0 0.0 0.00 0.20 0.08 59 1010.1
20260508195630 12 103 0.0 0.0 0.00 0.20 0.08 59 1010.2
20260508194629 11 103 0.0 0.0 0.00 0.20 0.08 61 1010.3
20260508193629 11 103 0.0 0.0 0.00 0.20 0.08 62 1010.4
20260508193108 11 103 0.0 1.6 0.00 0.20 0.08 63 1010.4
20260508191629 11 103 0.0 0.0 0.00 0.20 0.08 62 1010.7
20260508190630 10 103 0.0 1.6 0.00 0.20 0.08 64 1010.7
20260508185629 10 107 0.0 1.6 0.00 0.20 0.08 65 1010.6
20260508184629 11 107 0.0 4.8 0.00 0.20 0.08 62 1010.6
20260508184114 12 119 0.0 12.9 0.00 0.20 0.08 59 1010.5
20260508182629 12 208 0.0 6.4 0.00 0.20 0.08 45 1010.5
20260508182121 12 205 0.0 1.6 0.00 0.20 0.08 51 1010.6
20260508180629 12 205 0.0 4.8 0.00 0.20 0.08 49 1010.7
20260508175630 11 204 0.0 1.6 0.00 0.20 0.08 55 1010.7
20260508174629 11 204 0.0 1.6 0.00 0.20 0.08 53 1010.9
20260508173630 11 204 0.0 8.0 0.00 0.20 0.08 57 1011.0
20260508172630 11 201 0.0 0.0 0.00 0.20 0.08 56 1011.1
20260508171630 11 201 0.0 1.6 0.00 0.20 0.08 59 1011.2
20260508171108 11 201 0.0 1.6 0.00 0.20 0.08 57 1011.1
20260508165629 11 201 0.0 1.6 0.00 0.20 0.08 58 1011.2
20260508164629 10 201 0.0 12.9 0.00 0.20 0.08 58 1011.5
20260508163629 11 242 0.0 3.2 0.00 0.20 0.08 58 1011.5
20260508162629 10 244 0.0 6.4 0.00 0.20 0.08 60 1011.7
20260508161629 10 246 0.0 11.3 0.00 0.20 0.08 65 1011.8
20260508160629 9 247 0.0 4.8 0.00 0.20 0.08 64 1011.9
20260508155629 9 248 0.0 4.8 0.00 0.20 0.08 64 1011.9
20260508154629 9 0 0.0 0.0 0.00 0.20 0.08 65 1012.0
20260508153629 8 248 0.0 0.0 0.00 0.20 0.08 73 1011.9
20260508152624 8 0 0.0 1.6 0.00 0.20 0.08 75 1011.9
20260508151623 8 248 0.0 6.4 0.00 0.20 0.08 79 1011.8
20260508150623 8 249 0.0 3.2 0.00 0.20 0.08 79 1011.9
20260508145623 7 0 0.0 1.6 0.00 0.20 0.08 82 1011.8
20260508144624 7 249 0.0 4.8 0.00 0.20 0.08 81 1011.9
20260508143621 7 0 0.0 4.8 0.00 0.20 0.08 83 1011.9
20260508142621 7 0 0.0 0.0 0.00 0.20 0.08 86 1011.8
20260508142551 6 0 0.0 3.2 0.00 0.20 0.08 87 1011.8
20260508140621 6 0 0.0 1.6 0.00 0.20 0.08 88 1011.7
20260508135616 6 0 0.0 4.8 0.00 0.20 0.08 90 1011.5
20260508134615 5 0 0.0 0.0 0.03 0.20 0.08 90 1011.6
20260508133615 5 253 0.0 0.0 0.05 0.20 0.08 90 1011.7
20260508132615 5 253 0.0 4.8 0.05 0.20 0.08 90 1012.0
20260508131615 5 254 0.0 12.9 0.05 0.20 0.08 91 1012.1
20260508130615 5 254 0.0 12.9 0.05 0.20 0.08 91 1012.0
20260508125615 5 275 0.0 9.7 0.05 0.20 0.08 91 1011.9
20260508124615 5 290 0.0 1.6 0.03 0.18 0.05 92 1012.0